ABS-4 (MOBISAT-1)

Last updated on Sun Aug 31 2025 00:02:46 GMT+0000 (Coordinated Universal Time)

1 28184U 04007A 25242.11014061 .00000042 00000+0 00000+0 0 9997 2 28184 5.2993 75.5567 0005198 87.8123 275.8221 1.00270416 49427
UTC large
Height (km)
Speed (km/s)
/
Latitude / Longitude
Inclination (degrees)
Orbital Period (minutes)
Azimuth
Elevation
Range (km)
Doppler Factor

Next 0 passes for location: London (51.5072 / 0.1276)

Sorry there are no passes over London.